Location: Cran-Gévrier
(45.9039°N, 6.1012°E)
Time: 10:30:46
(UTC+00:00)

Cosmos 1726 Rocket - Pass Details

Date: 09 February 2023
Orbit: 602 x 627 km, 82.5° (Epoch: 31 March)

Event Time Altitude Azimuth Distance (km) Brightness Sun altitude
Rises 17:22:25 0° 350° (N) 2,867 6.9 -5.8°
Reaches altitude 10° 17:24:38 10° 351° (N) 1,959 6.1 -6.1°
Maximum altitude 17:28:58 88° 269° (W) 612 3.6 -6.9°
Drops below altitude 10° 17:33:18 10° 173° (S) 1,952 6.2 -7.6°
Sets 17:35:30 0° 173° (S) 2,855 7.1 -8.0°
